SES-3

Last updated on Tue Dec 16 2025 00:02:49 GMT+0000 (Coordinated Universal Time)

1 37748U 11035A 25349.35739235 -.00000081 00000+0 00000+0 0 9997 2 37748 0.8521 85.1363 0003204 201.6042 183.1848 1.00271774 52758
UTC large
Height (km)
Speed (km/s)
/
Latitude / Longitude
Inclination (degrees)
Orbital Period (minutes)
Azimuth
Elevation
Range (km)
Doppler Factor

Next 0 passes for location: London (51.5072 / 0.1276)

Sorry there are no passes over London.